Location: Fernhill
(41.0167°S, 175.6333°E)
Time: 12:11:00
(UTC+00:00)

NOSS 3-2 (A) - Pass Details

Date: 08 November 2025
Orbit: 666 x 1537 km, 63.4° (Epoch: 06 November)

Event Time Altitude Azimuth Distance (km) Brightness Sun altitude
Rises 09:35:40 0° 222° (SW) 3,722 8.0 -23.2°
Reaches altitude 10° 09:38:43 10° 231° (SW) 2,624 6.8 -23.5°
Maximum altitude 09:43:53 32° 291° (WNW) 1,370 4.4 -24.1°
Enters shadow 09:45:25 27° 322° (NW) 1,468 4.3 -24.3°
